www.pogodaiklimat.ru

Погода и климат >> Архив погоды >> Турция >> Газиантеп


ПОГОДА в Газиантепе

  • Прогноз погоды в Газиантепе
  • Монитор погоды в Газиантепе

АРХИВ ПОГОДЫ в Газиантепе

Время (UTC), дата Ветер
(напр.,м/с)
 
Видим.   Явления Облачность Т
(С)
Тd
(С)
f
(%)
Тe
(С)
Тes
(С)
Комфортность P
(гПа)
Po
(гПа)
Тmin
(С)
Tmax
(С)
R
(мм)
R24
(мм)
S
(см)
06 14.05 С 1
{3}
20 км ясно +24.4 +7.9 35 +25 +37 комфорт 1012.6 919.0 +14.4
09 14.05 В 1
{4}
20 км ясно +29.0 +8.3 27 +28 +54 опасность
солнечного
удара
1012.3 918.9
12 14.05 ЮВ 1
{4}
20 км ясно +30.8 +6.0 21 +29 +46 жарко 1010.8 917.5
15 14.05 штиль 0
{4}
20 км ясно +30.1 +5.5 21 +28 +31 жарко 1010.3 916.8
18 14.05 штиль 0
{4}
20 км ясно +22.8 +8.4 40 +24 +24 комфорт 1011.1 917.9 +31.4
06 15.05 штиль 0
{2}
20 км ясно +27.4 +6.4 26 +27 +40 жарко 1011.6 918.8 +16.2
09 15.05 В 1
{3}
20 км ясно +31.5 +5.1 19 +29 +55 опасность
солнечного
удара
1010.8 918.3
12 15.05 Ю 1
{4}
20 км ясно +32.4 +3.5 16 +30 +46 жарко 1009.6 917.0
15 15.05 штиль 0
{4}
20 км ясно +31.9 +2.7 16 +29 +32 жарко 1008.6 915.8
18 15.05 ЮЗ 1
{4}
20 км ясно +24.3 +9.9 40 +25 +25 комфорт 1008.6 916.3 +33.6
06 16.05 штиль 0
{2}
20 км ясно +28.3 +6.6 25 +27 +40 жарко 1007.6 915.5 +16.7
09 16.05 ЮВ 1
{4}
20 км ясно +32.3 +2.4 15 +29 +53 опасность
солнечного
удара
1007.0 915.1
12 16.05 ЮВ 1
{4}
20 км 5/0 2000 м
[Ac lent]
+34.3 +2.0 13 +31 +41 жарко 1005.9 913.9
15 16.05 Ю 1
{4}
20 км ясно +32.3 +0.9 13 +29 +32 жарко 1005.0 912.7
18 16.05 штиль 0
{4}
20 км ясно +23.9 +8.7 38 +25 +25 комфорт 1005.0 913.1 +34.3
06 17.05 В 1
{4}
20 км ясно +28.3 +3.3 20 +27 +38 жарко 1005.0 913.1 +17.1
09 17.05 В 1
{5}
20 км ясно +33.1 +1.9 14 +30 +54 опасность
солнечного
удара
1004.0 912.5
12 17.05 ЮВ 2
{6}
20 км ясно +34.1 +0.9 12 +31 +46 жарко 1002.3 910.8
15 17.05 ЮЗ 1
{5}
20 км ясно +32.2 +1.9 15 +29 +32 жарко 1001.6 909.6
18 17.05 ЮЗ 1
{7}
20 км ясно +26.0 +3.4 23 +25 +25 комфорт 1001.6 910.3 +34.9
06 18.05 С 1
{4}
20 км 3/0
[Ac trans]
+24.3 +7.9 35 +25 +35 комфорт 1003.9 911.8 +17.2
09 18.05 З 2
{6}
20 км ясно +25.9 +5.7 27 +25 +47 комфорт 1004.9 912.1
12 18.05 СЗ 2
{6}
20 км ясно +26.5 +2.1 21 +25 +39 комфорт 1004.6 911.8
15 18.05 З 2
{8}
20 км ясно +23.1 +0.8 23 +22 +24 комфорт 1006.0 912.2
18 18.05 З 1
{8}
20 км ясно +18.5 +0.3 29 +20 +20 1006.9 913.4 +26.9
06 19.05 З 1
{3}
20 км ясно +21.6 +5.5 35 +22 +34 комфорт 1008.8 914.7 +12.5
09 19.05 СЗ 1
{6}
20 км ясно +26.2 +2.4 21 +25 +48 комфорт 1008.3 914.5
12 19.05 ЮЗ 2
{6}
20 км ясно +27.1 +1.5 19 +25 +41 комфорт 1007.9 913.9
15 19.05 З 2
{6}
20 км ясно +25.2 +6.4 30 +25 +27 комфорт 1007.7 913.4
18 19.05 З 1
{6}
20 км ясно +20.6 +8.4 45 +23 +23 комфорт 1008.2 914.5 +27.4
06 20.05 СЗ 2
{5}
20 км ясно +24.5 +4.6 28 +24 +35 комфорт 1010.9 917.4 +15.7
09 20.05 З 2
{7}
20 км ясно +27.6 +5.0 24 +27 +47 жарко 1011.3 918.0
12 20.05 З 3-8
{8}
20 км ясно +28.4 +4.2 21 +27 +40 жарко 1010.0 916.8
15 20.05 З 2
{7}
20 км ясно +25.9 +5.9 28 +25 +28 комфорт 1010.5 916.5
18 20.05 З 2
{7}
20 км ясно +22.4 +5.6 34 +23 +23 комфорт 1010.4 917.2 +29.7

 

Местоположение метеостанции Газиантеп (Турция): широта 37.06 долгота 37.35 высота над уровнем моря 854 м.

В архиве по умолчанию представлена погода в Газиантепе за последнюю неделю. Архивные данные за месяц целиком и за предыдущие месяцы, начиная с января 2011 года, Вы можете получить, выбрав интересующий диапазон дат из раскрывающегося списка и нажав кнопку "Ввод!".


*Определитесь, кто Вы:
робот инопланетянин человек

Внимание! Время в таблицах - всемирное. Для получения местного времени необходимо прибавить поправку, которая равна 2 ч.

Смотрите также архив погоды в соседних городах и на ближайших метеорологических станциях:

Погода в Газиантепе (Турция) (3 км)
Погода в Килисе (Турция) (43 км)
Погода в Кахраманмараше (Турция) (71 км)
Погода в Османие (Турция) (98 км)
Погода в Алеппо (Сирия) (99 км)
Погода в Адыямане (Турция) (112 км)
Погода в Искендеруне (Турция) (118 км)
Погода в Шанлыурфе (Турция) (126 км)
Погода в Аэропорту GAP (Турция) (143 км)
Погода в Эт-Телль-эль-Абьяде (Сирия) (148 км)

Пояснения к столбцам:

Ветер - указаны скорость ветра в м/с - средняя за 10 мин, порывы в срок и между сроками (в фигурных скобках) и направление, откуда дует ветер: С - северный, СВ - северо-восточный, В - восточный, ЮВ - юго-восточный, Ю - южный, ЮЗ - юго-западный, З - западный, СЗ - северо-западный.
Видимость - горизонтальная дальность видимости в метрах или километрах. При видимости от 1 до 10 км при отсутствии осадков обычно наблюдается дымка, при ухудшении видимости до 1 км и менее - туман. В сухую погоду видимость может ухудшаться дымом, пылью или мглою.
Явления - указаны атмосферные явления, наблюдавшиеся в срок или в последний час перед сроком; фигурными скобками обозначены явления, наблюдавшиеся между сроками (за 1-3 часа до срока); квадратными скобками обозначены град или гололедные отложения с указанием их диаметра в мм.
Облачность - указаны через наклонную черту общая и нижняя облачность в баллах и высота нижней границы облаков в метрах; квадратными скобками обозначены формы облаков: Ci - перистые, Cs - перисто-слоистые, Cc - перисто-кучевые, Ac - высококучевые, As - высокослоистые, Sc - слоисто-кучевые, Ns - слоисто-дождевые, Cu - кучевые, Cb - кучево-дождевые. Подробнее классификацию облаков см. в Атласе облаков (PDF).
T - Температура воздуха - температура, измеренная на высоте 2 м над землей.
Td - Температура точки росы - температура, при понижении до которой содержащийся в воздухе водяной пар достигнет насыщения.
f - Относительная влажность воздуха - влажноcть воздуха, измеренная на высоте 2 м над землей.
Te - Эффективная температура - температура, которую ощущает одетый по сезону человек в тени. Характеристика душности погоды. При расчете учитывается влияние влажности воздуха и скорости ветра на теплоощущения человека.
Tes - Эффективная температура на солнце - температура, которую ощущает человек, с поправкой на солнечный нагрев. Характеристика знойности погоды. Зависит от высоты солнца над горизонтом, облачности и скорости ветра. Ночью, в пасмурную погоду, а также при ветре 12 м/с и более поправка равна нулю.
P - Атмосферное давление - приведенное к уровню моря атмосферное давление.
Po - Атмосферное давление - измеренное на уровне метеостанции атмосферное давление.
Tmin - Минимальная температура - минимум температуры воздуха на высоте 2 м над землей.
Tmax - Максимальная температура - максимум температуры воздуха на высоте 2 м над землей.
R - Количество осадков - Количество выпавших осадков за период времени, мм. При наведении курсора мыши на число - период времени, за который выпало указанное количество осадков.
R24 - Количество осадков - Количество выпавших осадков за 24 часа, мм.
S - Снежный покров - Высота снежного покрова, см. При наведении курсора мыши на число - состояние снежного покрова и степень покрытия местности в баллах.